Time,TemperatureF,DewpointF,PressureIn,WindDirection,WindDirectionDegrees,WindSpeedMPH,WindSpeedGustMPH,Humidity,HourlyPrecipIn,Conditions,Clouds,dailyrainin,SoftwareType,DateUTC
2013-02-09 00:02:00,23.0,18.0,-100.00,SE,135,17.0,28.0,82,0.00,,,0.00,,2013-02-09 00:02:00,
2013-02-09 00:11:00,23.0,18.0,-100.00,SE,140,21.0,30.0,83,0.00,,,0.00,,2013-02-09 00:11:00,
2013-02-09 00:21:00,23.0,19.0,-100.00,SE,140,18.0,26.0,83,0.00,,,0.00,,2013-02-09 00:21:00,
2013-02-09 00:32:00,23.0,19.0,-100.00,SE,130,22.0,30.0,83,0.00,,,0.00,,2013-02-09 00:32:00,
2013-02-09 00:42:00,23.0,19.0,-100.00,SE,125,21.0,29.0,83,0.00,,,0.00,,2013-02-09 00:42:00,
2013-02-09 00:52:00,23.0,19.0,-100.00,SE,140,22.0,30.0,84,0.00,,,0.00,,2013-02-09 00:52:00,
2013-02-09 01:01:00,23.0,19.0,-100.00,SE,145,19.0,32.0,84,0.00,,,0.00,,2013-02-09 01:01:00,
2013-02-09 01:11:00,23.0,19.0,-100.00,SE,140,20.0,29.0,84,0.00,,,0.00,,2013-02-09 01:11:00,
2013-02-09 01:21:00,23.0,19.0,-100.00,SE,145,22.0,30.0,84,0.00,,,0.00,,2013-02-09 01:21:00,
2013-02-09 01:32:00,23.0,19.0,-100.00,SE,145,21.0,30.0,84,0.00,,,0.00,,2013-02-09 01:32:00,
2013-02-09 01:41:00,23.0,19.0,-100.00,SE,140,25.0,30.0,85,0.00,,,0.00,,2013-02-09 01:41:00,
2013-02-09 01:52:00,23.0,19.0,-100.00,SE,140,20.0,29.0,85,0.00,,,0.00,,2013-02-09 01:52:00,
2013-02-09 02:01:00,23.0,19.0,-100.00,SE,140,24.0,30.0,85,0.00,,,0.00,,2013-02-09 02:01:00,
2013-02-09 02:11:00,23.0,19.0,-100.00,SE,140,21.0,30.0,85,0.00,,,0.00,,2013-02-09 02:11:00,
2013-02-09 02:21:00,23.0,19.0,-100.00,SE,145,20.0,29.0,85,0.00,,,0.00,,2013-02-09 02:21:00,
2013-02-09 02:32:00,23.0,19.0,-100.00,SE,140,21.0,29.0,86,0.00,,,0.00,,2013-02-09 02:32:00,
2013-02-09 02:42:00,23.0,19.0,-100.00,SE,140,19.0,30.0,86,0.00,,,0.00,,2013-02-09 02:42:00,
2013-02-09 02:52:00,23.0,19.0,-100.00,SE,140,21.0,31.0,87,0.00,,,0.00,,2013-02-09 02:52:00,
2013-02-09 03:02:00,23.0,19.0,-100.00,SE,135,21.0,31.0,87,0.00,,,0.00,,2013-02-09 03:02:00,
2013-02-09 03:11:00,23.0,19.0,-100.00,SE,135,19.0,30.0,87,0.00,,,0.00,,2013-02-09 03:11:00,
2013-02-09 03:21:00,23.0,19.0,-100.00,SE,135,23.0,32.0,87,0.00,,,0.00,,2013-02-09 03:21:00,
2013-02-09 03:32:00,23.0,19.0,-100.00,SE,125,21.0,33.0,87,0.00,,,0.00,,2013-02-09 03:32:00,
2013-02-09 03:42:00,23.0,19.0,-100.00,SE,130,21.0,28.0,88,0.00,,,0.00,,2013-02-09 03:42:00,
2013-02-09 03:52:00,23.0,19.0,-100.00,SE,140,24.0,34.0,88,0.00,,,0.00,,2013-02-09 03:52:00,
2013-02-09 04:02:00,23.0,19.0,-100.00,SE,130,22.0,33.0,88,0.00,,,0.00,,2013-02-09 04:02:00,
2013-02-09 04:11:00,23.0,19.0,-100.00,SE,135,21.0,29.0,88,0.00,,,0.00,,2013-02-09 04:11:00,
2013-02-09 04:23:00,23.0,19.0,-100.00,SE,140,21.0,27.0,88,0.00,,,0.00,,2013-02-09 04:23:00,
2013-02-09 04:32:00,23.0,19.0,-100.00,SE,130,23.0,31.0,89,0.00,,,0.00,,2013-02-09 04:32:00,
2013-02-09 04:42:00,23.0,19.0,-100.00,SE,125,22.0,29.0,89,0.00,,,0.00,,2013-02-09 04:42:00,
2013-02-09 04:52:00,23.0,19.0,-100.00,SE,145,21.0,31.0,89,0.00,,,0.00,,2013-02-09 04:52:00,
2013-02-09 05:02:00,23.0,21.0,-100.00,SE,135,21.0,32.0,89,0.00,,,0.00,,2013-02-09 05:02:00,
2013-02-09 05:12:00,23.0,21.0,-100.00,SE,130,21.0,29.0,90,0.00,,,0.00,,2013-02-09 05:12:00,
2013-02-09 05:22:00,23.0,21.0,-100.00,SE,125,18.0,27.0,90,0.00,,,0.00,,2013-02-09 05:22:00,
2013-02-09 05:31:00,23.0,21.0,-100.00,SE,135,19.0,27.0,90,0.00,,,0.00,,2013-02-09 05:31:00,
2013-02-09 05:41:00,23.0,21.0,-100.00,SE,135,22.0,31.0,90,0.00,,,0.00,,2013-02-09 05:41:00,
2013-02-09 05:52:00,23.0,21.0,-100.00,SE,140,23.0,31.0,90,0.00,,,0.00,,2013-02-09 05:52:00,
2013-02-09 06:01:00,23.0,21.0,-100.00,SE,130,20.0,31.0,90,0.00,,,0.00,,2013-02-09 06:01:00,
2013-02-09 06:11:00,23.0,21.0,-100.00,SE,135,24.0,30.0,90,0.00,,,0.00,,2013-02-09 06:11:00,
2013-02-09 06:21:00,23.0,21.0,-100.00,SE,130,23.0,33.0,90,0.00,,,0.00,,2013-02-09 06:21:00,
2013-02-09 06:31:00,23.0,21.0,-100.00,SE,145,23.0,31.0,90,0.00,,,0.00,,2013-02-09 06:31:00,
2013-02-09 06:41:00,23.0,21.0,-100.00,SE,145,19.0,30.0,91,0.00,,,0.00,,2013-02-09 06:41:00,
2013-02-09 06:51:00,23.0,21.0,-100.00,SSE,150,21.0,32.0,91,0.00,,,0.00,,2013-02-09 06:51:00,
2013-02-09 07:01:00,23.0,21.0,-100.00,SSE,150,22.0,31.0,91,0.00,,,0.00,,2013-02-09 07:01:00,
2013-02-09 07:11:00,23.0,21.0,-100.00,SSE,150,21.0,29.0,91,0.00,,,0.00,,2013-02-09 07:11:00,
2013-02-09 07:21:00,23.0,21.0,-100.00,SE,145,22.0,32.0,91,0.00,,,0.00,,2013-02-09 07:21:00,
2013-02-09 07:31:00,23.0,21.0,-100.00,SSE,150,21.0,31.0,91,0.00,,,0.00,,2013-02-09 07:31:00,
2013-02-09 07:42:00,23.0,21.0,-100.00,SSE,150,24.0,31.0,91,0.00,,,0.00,,2013-02-09 07:42:00,
2013-02-09 07:51:00,23.0,21.0,-100.00,SE,140,24.0,31.0,91,0.00,,,0.00,,2013-02-09 07:51:00,
2013-02-09 08:01:00,24.0,21.0,-100.00,SE,145,26.0,34.0,91,0.00,,,0.00,,2013-02-09 08:01:00,
2013-02-09 08:11:00,24.0,21.0,-100.00,SE,145,22.0,32.0,92,0.00,,,0.00,,2013-02-09 08:11:00,
2013-02-09 08:21:00,24.0,21.0,-100.00,SSE,150,25.0,34.0,92,0.00,,,0.00,,2013-02-09 08:21:00,
2013-02-09 08:31:00,24.0,21.0,-100.00,SSE,150,26.0,37.0,92,0.00,,,0.00,,2013-02-09 08:31:00,
2013-02-09 08:42:00,24.0,21.0,-100.00,SSE,150,26.0,38.0,92,0.00,,,0.00,,2013-02-09 08:42:00,
2013-02-09 08:52:00,24.0,21.0,-100.00,SSE,150,26.0,34.0,92,0.00,,,0.00,,2013-02-09 08:52:00,
2013-02-09 09:03:00,24.0,23.0,-100.00,SSE,150,24.0,33.0,92,0.00,,,0.00,,2013-02-09 09:03:00,
2013-02-09 09:11:00,24.0,23.0,-100.00,SE,145,27.0,34.0,92,0.00,,,0.00,,2013-02-09 09:11:00,
2013-02-09 09:21:00,24.0,23.0,-100.00,SSE,150,24.0,33.0,92,0.00,,,0.00,,2013-02-09 09:21:00,
2013-02-09 09:31:00,24.0,23.0,-100.00,SE,145,26.0,32.0,92,0.00,,,0.00,,2013-02-09 09:31:00,
2013-02-09 09:41:00,25.0,23.0,-100.00,SSE,150,27.0,34.0,92,0.00,,,0.00,,2013-02-09 09:41:00,
2013-02-09 09:51:00,25.0,23.0,-100.00,SE,145,19.0,31.0,92,0.00,,,0.00,,2013-02-09 09:51:00,
2013-02-09 10:01:00,25.0,23.0,-100.00,SSE,150,23.0,34.0,92,0.00,,,0.00,,2013-02-09 10:01:00,
2013-02-09 10:11:00,25.0,23.0,-100.00,SSE,150,26.0,33.0,92,0.00,,,0.00,,2013-02-09 10:11:00,
2013-02-09 10:21:00,25.0,23.0,-100.00,SE,145,24.0,34.0,92,0.00,,,0.00,,2013-02-09 10:21:00,
2013-02-09 10:31:00,25.0,23.0,-100.00,SSE,150,26.0,33.0,92,0.00,,,0.00,,2013-02-09 10:31:00,
2013-02-09 10:41:00,25.0,23.0,-100.00,SSE,150,23.0,32.0,92,0.00,,,0.00,,2013-02-09 10:41:00,
2013-02-09 10:51:00,25.0,23.0,-100.00,SSE,155,25.0,32.0,92,0.00,,,0.00,,2013-02-09 10:51:00,
2013-02-09 11:01:00,25.0,23.0,-100.00,SSE,155,21.0,31.0,92,0.00,,,0.00,,2013-02-09 11:01:00,
2013-02-09 11:11:00,25.0,23.0,-100.00,SSE,160,22.0,30.0,92,0.00,,,0.00,,2013-02-09 11:11:00,
2013-02-09 11:21:00,25.0,23.0,-100.00,SSE,160,22.0,29.0,92,0.00,,,0.00,,2013-02-09 11:21:00,
2013-02-09 11:31:00,25.0,23.0,-100.00,SSE,155,22.0,29.0,92,0.00,,,0.00,,2013-02-09 11:31:00,
2013-02-09 11:41:00,25.0,23.0,-100.00,SSE,150,22.0,27.0,92,0.00,,,0.00,,2013-02-09 11:41:00,
2013-02-09 11:52:00,25.0,23.0,-100.00,SSE,155,21.0,27.0,93,0.00,,,0.00,,2013-02-09 11:52:00,
2013-02-09 12:02:00,25.0,23.0,-100.00,SSE,155,19.0,27.0,92,0.00,,,0.00,,2013-02-09 12:02:00,
2013-02-09 12:11:00,25.0,23.0,-100.00,SSE,155,21.0,28.0,93,0.00,,,0.00,,2013-02-09 12:11:00,
2013-02-09 12:21:00,25.0,23.0,-100.00,SSE,155,22.0,28.0,93,0.00,,,0.00,,2013-02-09 12:21:00,
2013-02-09 12:32:00,25.0,23.0,-100.00,SSE,150,24.0,29.0,93,0.00,,,0.00,,2013-02-09 12:32:00,
2013-02-09 12:42:00,25.0,23.0,-100.00,SSE,160,26.0,30.0,93,0.00,,,0.00,,2013-02-09 12:42:00,
2013-02-09 12:52:00,25.0,23.0,-100.00,SSE,155,22.0,30.0,93,0.00,,,0.00,,2013-02-09 12:52:00,
2013-02-09 13:02:00,25.0,23.0,-100.00,SSE,160,20.0,29.0,93,0.00,,,0.00,,2013-02-09 13:02:00,
2013-02-09 13:11:00,24.0,23.0,-100.00,SSE,165,22.0,27.0,93,0.00,,,0.00,,2013-02-09 13:11:00,
2013-02-09 13:21:00,25.0,23.0,-100.00,SE,145,21.0,30.0,93,0.00,,,0.00,,2013-02-09 13:21:00,
2013-02-09 13:32:00,25.0,23.0,-100.00,SSE,155,21.0,26.0,93,0.00,,,0.00,,2013-02-09 13:32:00,
2013-02-09 13:42:00,25.0,23.0,-100.00,SSE,150,23.0,29.0,93,0.00,,,0.00,,2013-02-09 13:42:00,
2013-02-09 13:51:00,25.0,23.0,-100.00,SSE,155,22.0,27.0,93,0.00,,,0.00,,2013-02-09 13:51:00,
2013-02-09 14:01:00,25.0,23.0,-100.00,SSE,155,20.0,26.0,93,0.00,,,0.00,,2013-02-09 14:01:00,
2013-02-09 14:11:00,25.0,23.0,-100.00,SSE,155,20.0,28.0,93,0.00,,,0.00,,2013-02-09 14:11:00,
2013-02-09 14:21:00,25.0,23.0,-100.00,SSE,155,21.0,26.0,93,0.00,,,0.00,,2013-02-09 14:21:00,
2013-02-09 14:31:00,25.0,23.0,-100.00,SE,145,22.0,27.0,93,0.00,,,0.00,,2013-02-09 14:31:00,
2013-02-09 14:41:00,25.0,23.0,-100.00,SSE,150,19.0,26.0,93,0.00,,,0.00,,2013-02-09 14:41:00,
2013-02-09 14:52:00,25.0,23.0,-100.00,SSE,160,22.0,27.0,93,0.00,,,0.00,,2013-02-09 14:52:00,
2013-02-09 15:01:00,25.0,23.0,-100.00,SSE,155,20.0,28.0,93,0.00,,,0.00,,2013-02-09 15:01:00,
2013-02-09 15:11:00,25.0,23.0,-100.00,SSE,150,19.0,25.0,93,0.00,,,0.00,,2013-02-09 15:11:00,
2013-02-09 15:21:00,25.0,23.0,-100.00,SSE,150,22.0,27.0,93,0.00,,,0.00,,2013-02-09 15:21:00,
2013-02-09 15:32:00,25.0,23.0,-100.00,SSE,150,21.0,26.0,93,0.00,,,0.00,,2013-02-09 15:32:00,
2013-02-09 15:42:00,26.0,23.0,-100.00,SSE,155,19.0,24.0,93,0.00,,,0.00,,2013-02-09 15:42:00,
2013-02-09 15:51:00,26.0,25.0,-100.00,SSE,155,21.0,24.0,93,0.00,,,0.00,,2013-02-09 15:51:00,
2013-02-09 16:01:00,26.0,25.0,-100.00,SSE,150,20.0,24.0,93,0.00,,,0.00,,2013-02-09 16:01:00,
2013-02-09 16:11:00,26.0,25.0,-100.00,SSE,155,21.0,26.0,93,0.00,,,0.00,,2013-02-09 16:11:00,
2013-02-09 16:22:00,26.0,25.0,-100.00,SSE,155,17.0,24.0,93,0.00,,,0.00,,2013-02-09 16:22:00,
2013-02-09 16:31:00,26.0,25.0,-100.00,SSE,155,21.0,26.0,93,0.00,,,0.00,,2013-02-09 16:31:00,
2013-02-09 16:41:00,26.0,25.0,-100.00,SSE,155,18.0,26.0,92,0.00,,,0.00,,2013-02-09 16:41:00,
2013-02-09 16:51:00,26.0,25.0,-100.00,SSE,160,20.0,24.0,92,0.00,,,0.00,,2013-02-09 16:51:00,
2013-02-09 17:01:00,27.0,25.0,-100.00,SSE,155,17.0,24.0,91,0.00,,,0.00,,2013-02-09 17:01:00,
2013-02-09 17:11:00,27.0,25.0,-100.00,SSE,155,19.0,23.0,91,0.00,,,0.00,,2013-02-09 17:11:00,
2013-02-09 17:21:00,27.0,25.0,-100.00,SSE,155,16.0,22.0,91,0.00,,,0.00,,2013-02-09 17:21:00,
2013-02-09 17:32:00,27.0,25.0,-100.00,SSE,155,18.0,21.0,91,0.00,,,0.00,,2013-02-09 17:32:00,
2013-02-09 17:41:00,27.0,25.0,-100.00,SSE,160,19.0,24.0,91,0.00,,,0.00,,2013-02-09 17:41:00,
2013-02-09 17:52:00,27.0,25.0,-100.00,SSE,155,17.0,22.0,91,0.00,,,0.00,,2013-02-09 17:52:00,
2013-02-09 18:02:00,27.0,25.0,-100.00,SSE,155,17.0,23.0,91,0.00,,,0.00,,2013-02-09 18:02:00,
2013-02-09 18:12:00,27.0,25.0,-100.00,SSE,155,16.0,21.0,91,0.00,,,0.00,,2013-02-09 18:12:00,
2013-02-09 18:23:00,28.0,25.0,-100.00,SSE,155,17.0,23.0,92,0.00,,,0.00,,2013-02-09 18:23:00,
2013-02-09 18:32:00,28.0,27.0,-100.00,SSE,160,17.0,21.0,92,0.00,,,0.00,,2013-02-09 18:32:00,
2013-02-09 18:42:00,28.0,27.0,-100.00,SSE,160,17.0,21.0,93,0.00,,,0.00,,2013-02-09 18:42:00,
2013-02-09 18:51:00,28.0,27.0,-100.00,SSE,150,16.0,21.0,94,0.00,,,0.00,,2013-02-09 18:51:00,
2013-02-09 19:01:00,28.0,27.0,-100.00,SSE,150,15.0,19.0,94,0.00,,,0.00,,2013-02-09 19:01:00,
2013-02-09 19:11:00,28.0,27.0,-100.00,SSE,150,18.0,22.0,94,0.00,,,0.00,,2013-02-09 19:11:00,
2013-02-09 19:22:00,28.0,27.0,-100.00,SE,145,15.0,21.0,95,0.00,,,0.00,,2013-02-09 19:22:00,
2013-02-09 19:32:00,28.0,27.0,-100.00,SSE,150,13.0,19.0,95,0.00,,,0.00,,2013-02-09 19:32:00,
2013-02-09 19:42:00,28.0,27.0,-100.00,SE,140,14.0,18.0,96,0.00,,,0.00,,2013-02-09 19:42:00,
2013-02-09 19:52:00,28.0,27.0,-100.00,SE,145,13.0,19.0,96,0.00,,,0.00,,2013-02-09 19:52:00,
2013-02-09 20:01:00,29.0,28.0,-100.00,SE,145,13.0,19.0,96,0.00,,,0.00,,2013-02-09 20:01:00,
2013-02-09 20:11:00,28.0,28.0,-100.00,SSE,150,17.0,21.0,97,0.00,,,0.00,,2013-02-09 20:11:00,
2013-02-09 20:21:00,29.0,28.0,-100.00,SE,145,14.0,20.0,97,0.00,,,0.00,,2013-02-09 20:21:00,
2013-02-09 20:31:00,29.0,28.0,-100.00,SSE,150,16.0,22.0,97,0.00,,,0.00,,2013-02-09 20:31:00,
2013-02-09 20:42:00,29.0,28.0,-100.00,SE,145,15.0,20.0,97,0.00,,,0.00,,2013-02-09 20:42:00,
2013-02-09 20:52:00,29.0,28.0,-100.00,SSE,150,15.0,20.0,97,0.00,,,0.00,,2013-02-09 20:52:00,
2013-02-09 21:02:00,29.0,28.0,-100.00,SE,140,12.0,18.0,97,0.00,,,0.00,,2013-02-09 21:02:00,
2013-02-09 21:11:00,29.0,28.0,-100.00,SE,135,14.0,19.0,97,0.00,,,0.00,,2013-02-09 21:11:00,
2013-02-09 21:21:00,29.0,28.0,-100.00,SE,140,12.0,20.0,97,0.00,,,0.00,,2013-02-09 21:21:00,
2013-02-09 21:31:00,29.0,28.0,-100.00,SE,145,13.0,18.0,97,0.00,,,0.00,,2013-02-09 21:31:00,
2013-02-09 21:41:00,29.0,28.0,-100.00,SE,135,14.0,18.0,97,0.00,,,0.00,,2013-02-09 21:41:00,
2013-02-09 21:52:00,29.0,28.0,-100.00,SE,145,11.0,16.0,97,0.00,,,0.00,,2013-02-09 21:52:00,
2013-02-09 22:01:00,29.0,28.0,-100.00,SE,140,11.0,17.0,97,0.00,,,0.00,,2013-02-09 22:01:00,
2013-02-09 22:11:00,29.0,28.0,-100.00,SE,140,11.0,15.0,97,0.00,,,0.00,,2013-02-09 22:11:00,
2013-02-09 22:21:00,29.0,28.0,-100.00,SE,125,9.0,14.0,97,0.00,,,0.00,,2013-02-09 22:21:00,
2013-02-09 22:32:00,29.0,28.0,-100.00,SE,140,10.0,16.0,97,0.00,,,0.00,,2013-02-09 22:32:00,
2013-02-09 22:41:00,29.0,28.0,-100.00,SE,140,11.0,15.0,97,0.00,,,0.00,,2013-02-09 22:41:00,
2013-02-09 22:51:00,29.0,28.0,-100.00,SE,140,11.0,15.0,97,0.00,,,0.00,,2013-02-09 22:51:00,
2013-02-09 23:01:00,29.0,28.0,-100.00,SE,140,14.0,17.0,97,0.00,,,0.00,,2013-02-09 23:01:00,
2013-02-09 23:11:00,30.0,28.0,-100.00,SE,135,9.0,17.0,97,0.00,,,0.00,,2013-02-09 23:11:00,
2013-02-09 23:21:00,30.0,28.0,-100.00,SE,145,11.0,16.0,97,0.00,,,0.00,,2013-02-09 23:21:00,
2013-02-09 23:31:00,30.0,28.0,-100.00,SE,135,9.0,17.0,97,0.00,,,0.00,,2013-02-09 23:31:00,
2013-02-09 23:42:00,29.0,28.0,-100.00,ESE,120,9.0,15.0,97,0.00,,,0.00,,2013-02-09 23:42:00,
2013-02-09 23:52:00,30.0,28.0,-100.00,SE,140,12.0,18.0,97,0.00,,,0.00,,2013-02-09 23:52:00,